Location: Newark
(42.8481°N, 0.4872°E)
Time: 12:19:09
(UTC+00:00)

A-11 Canister half - Pass Details

Date: 02 November 2020
Orbit: 1525 x 1684 km, 47.3° (Epoch: 01 December)

Event Time Altitude Azimuth Distance (km) Brightness Sun altitude
Rises 16:34:23 0° 282° (WNW) 4,759 12.6 1.6°
Reaches altitude 10° 16:37:31 10° 285° (WNW) 3,755 12.0 1.1°
Maximum altitude 16:46:59 71° 9° (N) 1,614 9.1 -0.5°
Drops below altitude 10° 16:56:16 10° 93° (E) 3,690 10.4 -2.1°
Sets 16:59:20 0° 96° (E) 4,673 11.0 -2.7°
